Weather History for KJXN - November, 2012

Change the Weather History Date:

Wednesday, November 7, 2012

  Actual Average Record
Temperature  
Mean Temperature 38 °F 43 °F  
Max Temperature 49 °F 52 °F 66 °F (1975)
Min Temperature 27 °F 35 °F 15 °F (1991)
Degree Days  
Heating Degree Days 27 22  
Month to date heating degree days 210 145  
Since 1 July heating degree days 858 793  
Cooling Degree Days 0 0  
Month to date cooling degree days 0 0  
Year to date cooling degree days 873 592  
Moisture  
Dew Point 27 °F    
Average Humidity 66    
Maximum Humidity 85    
Minimum Humidity 46    
Precipitation  
Precipitation 0.00 in 0.08 in 1.21 in (1996)
Month to date precipitation T 0.61  
Year to date precipitation 22.87 27.64  
Sea Level Pressure  
Sea Level Pressure 30.07 in    
Wind  
Wind Speed 3 mph (NE)    
Max Wind Speed 9 mph    
Max Gust Speed 13 mph    
Visibility 10 miles    
Events      
T = Trace of Precipitation, MM = Missing Value Source: NWS Daily Summary

Daily Weather History Graph

Daily Weather History Graph

Search for Another Location

Airport or City:

Trip Planner

Search our weather history database for the weather conditions in past years. The results will help you decide how hot, cold, wet, or windy it might be!

Date:

Astronomy

Nov. 07, 2012 Rise Set
Actual Time 7:19 AM EST 5:23 PM EST
Civil Twilight 6:49 AM EST 5:53 PM EST
Nautical Twilight 6:15 AM EST 6:26 PM EST
Astronomical Twilight 5:43 AM EST 6:59 PM EST
Moon 12:04 AM EST (11/7) 1:39 PM EST (11/7)
Length of Visible Light 11h 03m
Length of Day
10h 04m
Last Quarter, 43% of the Moon is Illuminated
Nov 7
Last Quarter
Nov 13
New
Nov 20
First Quarter
Nov 28
Full
Dec 6
Last Quarter

Hourly Weather History & Observations

Time (EST) Temp. Windchill Dew Point Humidity Pressure Visibility Wind Dir Wind Speed Gust Speed Precip Events Conditions
12:56 AM 33.1 °F 28.7 °F 27.0 °F 78% 29.99 in 10.0 mi East 4.6 mph - N/A   Overcast
1:56 AM 32.0 °F 27.5 °F 28.0 °F 85% 29.99 in 9.0 mi East 4.6 mph - N/A   Overcast
2:56 AM 32.0 °F - 27.0 °F 82% 29.99 in 10.0 mi Calm Calm - N/A   Overcast
3:56 AM 30.9 °F 27.5 °F 26.1 °F 82% 29.99 in 9.0 mi ENE 3.5 mph - N/A   Overcast
4:56 AM 28.9 °F - 25.0 °F 85% 30.01 in 9.0 mi Calm Calm - N/A   Clear
5:56 AM 28.0 °F 24.2 °F 24.1 °F 85% 30.02 in 9.0 mi NE 3.5 mph - N/A   Clear
6:56 AM 28.0 °F 24.2 °F 23.0 °F 81% 30.03 in 10.0 mi NE 3.5 mph - N/A   Scattered Clouds
7:56 AM 28.9 °F - 24.1 °F 82% 30.05 in 10.0 mi Calm Calm - N/A   Clear
8:56 AM 33.1 °F 28.7 °F 26.1 °F 75% 30.06 in 10.0 mi ENE 4.6 mph - N/A   Partly Cloudy
9:56 AM 37.9 °F 33.5 °F 27.0 °F 65% 30.07 in 10.0 mi ENE 5.8 mph - N/A   Clear
10:56 AM 43.0 °F 38.2 °F 28.9 °F 58% 30.08 in 10.0 mi NNE 8.1 mph - N/A   Clear
11:56 AM 46.0 °F 43.9 °F 28.0 °F 50% 30.08 in 10.0 mi Variable 4.6 mph - N/A   Clear
12:56 PM 46.0 °F - 28.0 °F 50% 30.07 in 10.0 mi Calm Calm - N/A   Clear
1:56 PM 46.9 °F - 28.9 °F 50% 30.06 in 10.0 mi Variable 3.5 mph - N/A   Clear
2:56 PM 48.9 °F - 28.9 °F 46% 30.05 in 10.0 mi NNW 3.5 mph - N/A   Clear
3:56 PM 48.0 °F - 28.0 °F 46% 30.07 in 10.0 mi NNE 6.9 mph - N/A   Clear
4:56 PM 45.0 °F 43.5 °F 28.9 °F 53% 30.09 in 10.0 mi North 3.5 mph - N/A   Clear
5:56 PM 39.9 °F 36.7 °F 28.9 °F 65% 30.11 in 10.0 mi North 4.6 mph - N/A   Clear
6:56 PM 37.9 °F 35.5 °F 28.9 °F 70% 30.13 in 8.0 mi NNE 3.5 mph - N/A   Clear
7:56 PM 36.0 °F - 28.0 °F 73% 30.14 in 10.0 mi Calm Calm - N/A   Clear
8:56 PM 36.0 °F 33.3 °F 28.0 °F 73% 30.15 in 10.0 mi NE 3.5 mph - N/A   Clear
9:56 PM 34.0 °F - 28.0 °F 79% 30.17 in 10.0 mi Calm Calm - N/A   Clear
10:56 PM 34.0 °F - 28.0 °F 79% 30.16 in 9.0 mi Calm Calm - N/A   Clear
11:56 PM 30.9 °F - 26.1 °F 82% 30.17 in 7.0 mi Calm Calm - N/A   Clear